Back to catalog

STARLINK-31518

AliveCommunicationsVLEO
NORAD 59219·PAYLOAD·🇺🇸 United States

Launched Mar 11, 2024 from Vandenberg Space Force Base

Loading…

Next Passes (next 24 hours)

TLE

FreshSource: CelesTrak SupGP

Epoch: Sep 14, 2026, 13:36 UTC

1 59219C 24046U   26257.56715278 -.00052374  00000+0 -15479-2 0  2572
2 59219  53.1603 353.6353 0001282  68.4832 138.6109 15.34407569    11

Track STARLINK-31518 in real time with AllMySat

Download on the App Store